Weather History for Milwaukee, WI

Change the Weather History Date:

Thursday, February 21, 2013

  Actual Average Record
Temperature  
Mean Temperature 23 °F 28 °F  
Max Temperature 28 °F 34 °F 58 °F (1930)
Min Temperature 18 °F 21 °F -12 °F (1963)
Degree Days  
Heating Degree Days 42 37  
Month to date heating degree days 894 840  
Since 1 July heating degree days 4479 4725  
Cooling Degree Days 0 0  
Month to date cooling degree days 0 0  
Year to date cooling degree days 0 0  
Moisture  
Dew Point 18 °F    
Average Humidity 76    
Maximum Humidity 84    
Minimum Humidity 67    
Precipitation  
Precipitation T in 0.06 in 1.81 in (1913)
Month to date precipitation 1.73 1.19  
Year to date precipitation 4.90 2.95  
Snow  
Snow T in 0.40 in 7.30 in (1993)
Month to date snowfall 11.0 7.5  
Since 1 July snowfall 22.4 35.5  
Snow Depth T in    
Sea Level Pressure  
Sea Level Pressure 30.31 in    
Wind  
Wind Speed 13 mph (NNE)    
Max Wind Speed 25 mph    
Max Gust Speed 31 mph    
Visibility 10 miles    
Events Snow    
T = Trace of Precipitation, MM = Missing Value Source: NWS Daily Summary

Daily Weather History Graph

Daily Weather History Graph

Search for Another Location

Airport:

Trip Planner

Search our weather history database for the weather conditions in past years. The results will help you decide how hot, cold, wet, or windy it might be!

Date:

Astronomy

Feb. 21, 2013 Rise Set
Actual Time 6:39 AM CST 5:31 PM CST
Civil Twilight 6:11 AM CST 5:59 PM CST
Nautical Twilight 5:38 AM CST 6:32 PM CST
Astronomical Twilight 5:05 AM CST 7:05 PM CST
Moon 1:41 PM CST (2/21) 3:48 AM CST (2/21)
Length of Visible Light 11h 48m
Length of Day
10h 51m
Waxing Gibbous, 84% of the Moon is Illuminated
Feb 21
Waxing Gibbous
Feb 25
Full
Mar 4
Last Quarter
Mar 11
New
Mar 19
First Quarter

Hourly Weather History & Observations

Time (CST) Temp. Windchill Dew Point Humidity Pressure Visibility Wind Dir Wind Speed Gust Speed Precip Events Conditions
12:52 AM 19.9 °F 9.3 °F 10.9 °F 68% 30.39 in 10.0 mi NNW 9.2 mph - N/A   Overcast
1:52 AM 19.0 °F 7.5 °F 12.0 °F 74% 30.38 in 10.0 mi North 10.4 mph - N/A   Overcast
2:31 AM 19.4 °F 10.4 °F 10.4 °F 68% 30.35 in 10.0 mi NNW 6.9 mph - N/A   Overcast
2:52 AM 19.0 °F 10.0 °F 10.9 °F 71% 30.39 in 10.0 mi NNW 6.9 mph - N/A   Overcast
3:52 AM 18.0 °F 9.8 °F 12.0 °F 78% 30.40 in 10.0 mi NNW 5.8 mph - N/A   Overcast
4:52 AM 18.0 °F 8.7 °F 12.0 °F 78% 30.43 in 10.0 mi NW 6.9 mph - N/A   Overcast
5:52 AM 18.0 °F 7.7 °F 12.9 °F 81% 30.41 in 10.0 mi North 8.1 mph - N/A   Overcast
6:52 AM 17.6 °F 9.3 °F 14.0 °F 86% 30.38 in 10.0 mi NW 5.8 mph - N/A   Overcast
7:52 AM 19.0 °F 9.0 °F 14.0 °F 81% 30.43 in 4.0 mi NW 8.1 mph - 0.00 in Snow Light Snow
8:52 AM 19.9 °F 10.1 °F 15.1 °F 81% 30.43 in 7.0 mi WNW 8.1 mph - 0.00 in Snow Light Snow
9:52 AM 19.9 °F 8.6 °F 16.0 °F 85% 30.41 in 10.0 mi NW 10.4 mph - 0.00 in   Overcast
10:52 AM 21.9 °F 12.5 °F 17.1 °F 82% 30.40 in 10.0 mi NW 8.1 mph - N/A   Overcast
11:52 AM 23.0 °F 14.7 °F 18.0 °F 81% 30.38 in 10.0 mi North 6.9 mph - N/A   Overcast
12:52 PM 25.0 °F 14.8 °F 19.9 °F 81% 30.34 in 10.0 mi North 10.4 mph - N/A   Overcast
1:05 PM 24.8 °F 15.3 °F 21.2 °F 86% 30.29 in 10.0 mi North 9.2 mph - N/A   Overcast
1:52 PM 26.1 °F 15.0 °F 23.0 °F 88% 30.27 in 9.0 mi NNE 12.7 mph 25.3 mph N/A   Overcast
2:22 PM 28.4 °F 15.1 °F 23.0 °F 80% 30.24 in 10.0 mi ENE 20.7 mph 28.8 mph N/A   Overcast
2:52 PM 27.0 °F 14.7 °F 23.0 °F 85% 30.29 in 10.0 mi ENE 16.1 mph 26.5 mph N/A   Overcast
3:52 PM 27.0 °F 14.7 °F 21.0 °F 78% 30.30 in 10.0 mi East 16.1 mph - N/A   Overcast
4:52 PM 27.0 °F 15.6 °F 21.0 °F 78% 30.29 in 10.0 mi East 13.8 mph - N/A   Overcast
5:52 PM 27.0 °F 14.3 °F 21.0 °F 78% 30.27 in 10.0 mi ENE 17.3 mph - N/A   Overcast
6:52 PM 27.0 °F 14.3 °F 21.0 °F 78% 30.25 in 10.0 mi East 17.3 mph - N/A   Overcast
7:52 PM 27.0 °F 12.8 °F 21.0 °F 78% 30.21 in 10.0 mi East 21.9 mph - N/A   Overcast
8:52 PM 27.0 °F 13.2 °F 19.9 °F 75% 30.16 in 10.0 mi East 20.7 mph 28.8 mph N/A   Overcast
9:52 PM 26.1 °F 11.6 °F 21.0 °F 81% 30.16 in 10.0 mi East 21.9 mph 26.5 mph N/A   Overcast
10:52 PM 27.0 °F 12.5 °F 21.0 °F 78% 30.12 in 10.0 mi East 23.0 mph 28.8 mph N/A   Overcast
11:52 PM 26.1 °F 12.3 °F 19.9 °F 78% 30.12 in 10.0 mi East 19.6 mph 25.3 mph N/A   Overcast